Time,TemperatureF,DewpointF,PressureIn,WindDirection,WindDirectionDegrees,WindSpeedMPH,WindSpeedGustMPH,Humidity,HourlyPrecipIn,Conditions,Clouds,dailyrainin,SoftwareType,DateUTC
2013-05-18 06:10:00,45.1,44.0,30.28,NE,50,0.0,-999.0,94,-99.99,,,0.00,weatherlink.com 1.10,2013-05-18 10:10:00,
2013-05-18 06:18:00,45.1,44.0,30.28,NE,50,0.0,-999.0,95,-99.99,,,0.00,weatherlink.com 1.10,2013-05-18 10:18:00,
2013-05-18 06:33:00,45.4,44.0,30.29,NE,50,0.0,-999.0,95,-99.99,,,0.00,weatherlink.com 1.10,2013-05-18 10:33:00,
2013-05-18 06:48:00,45.9,45.0,30.29,NE,50,0.0,-999.0,95,-99.99,,,0.00,weatherlink.com 1.10,2013-05-18 10:48:00,
2013-05-18 07:03:00,46.7,45.0,30.30,NE,50,0.0,-999.0,95,-99.99,,,0.00,weatherlink.com 1.10,2013-05-18 11:03:00,
2013-05-18 07:19:00,47.4,46.0,30.30,NE,50,0.0,-999.0,95,-99.99,,,0.00,weatherlink.com 1.10,2013-05-18 11:19:00,
2013-05-18 07:34:00,48.2,47.0,30.30,NE,50,0.0,-999.0,94,-99.99,,,0.00,weatherlink.com 1.10,2013-05-18 11:34:00,
2013-05-18 07:49:00,49.3,47.0,30.30,NE,50,0.0,-999.0,92,-99.99,,,0.00,weatherlink.com 1.10,2013-05-18 11:49:00,
2013-05-18 08:04:00,51.0,48.0,30.31,NE,50,0.0,-999.0,89,-99.99,,,0.00,weatherlink.com 1.10,2013-05-18 12:04:00,
2013-05-18 08:19:00,53.0,48.0,30.31,NE,50,0.0,-999.0,84,-99.99,,,0.00,weatherlink.com 1.10,2013-05-18 12:19:00,
2013-05-18 08:34:00,55.0,49.0,30.31,NE,50,0.0,-999.0,80,-99.99,,,0.00,weatherlink.com 1.10,2013-05-18 12:34:00,
2013-05-18 08:49:00,56.6,50.0,30.31,NE,50,0.0,-999.0,78,-99.99,,,0.00,weatherlink.com 1.10,2013-05-18 12:49:00,
2013-05-18 09:04:00,58.6,50.0,30.31,NE,50,0.0,-999.0,74,-99.99,,,0.00,weatherlink.com 1.10,2013-05-18 13:04:00,
2013-05-18 09:19:00,59.3,50.0,30.31,NE,50,0.0,-999.0,72,-99.99,,,0.00,weatherlink.com 1.10,2013-05-18 13:19:00,
2013-05-18 09:35:00,60.9,52.0,30.31,NE,50,0.0,-999.0,72,-99.99,,,0.00,weatherlink.com 1.10,2013-05-18 13:35:00,
2013-05-18 09:50:00,64.0,51.0,30.31,NE,50,0.0,-999.0,64,-99.99,,,0.00,weatherlink.com 1.10,2013-05-18 13:50:00,
2013-05-18 10:05:00,66.5,52.0,30.31,NE,50,0.0,-999.0,59,-99.99,,,0.00,weatherlink.com 1.10,2013-05-18 14:05:00,
2013-05-18 10:20:00,68.5,52.0,30.31,NE,50,0.0,-999.0,56,-99.99,,,0.00,weatherlink.com 1.10,2013-05-18 14:20:00,
2013-05-18 10:35:00,70.4,51.0,30.30,SSE,164,0.0,-999.0,51,-99.99,,,0.00,weatherlink.com 1.10,2013-05-18 14:35:00,
2013-05-18 10:50:00,71.0,53.0,30.30,SSE,164,0.0,-999.0,54,-99.99,,,0.00,weatherlink.com 1.10,2013-05-18 14:50:00,
2013-05-18 11:05:00,70.4,51.0,30.30,NNW,346,0.0,-999.0,51,-99.99,,,0.00,weatherlink.com 1.10,2013-05-18 15:05:00,
2013-05-18 11:20:00,71.1,51.0,30.30,WNW,297,0.0,-999.0,50,-99.99,,,0.00,weatherlink.com 1.10,2013-05-18 15:20:00,
2013-05-18 11:36:00,71.1,48.0,30.30,South,184,0.0,-999.0,44,-99.99,,,0.00,weatherlink.com 1.10,2013-05-18 15:36:00,
2013-05-18 11:51:00,71.5,50.0,30.29,South,180,0.0,-999.0,46,-99.99,,,0.00,weatherlink.com 1.10,2013-05-18 15:51:00,
2013-05-18 12:06:00,72.0,50.0,30.29,WSW,257,0.0,-999.0,46,-99.99,,,0.00,weatherlink.com 1.10,2013-05-18 16:06:00,
2013-05-18 12:21:00,72.4,50.0,30.28,NE,34,0.0,-999.0,45,-99.99,,,0.00,weatherlink.com 1.10,2013-05-18 16:21:00,
2013-05-18 12:36:00,72.5,51.0,30.28,SSW,205,0.0,-999.0,47,-99.99,,,0.00,weatherlink.com 1.10,2013-05-18 16:36:00,
2013-05-18 12:51:00,72.1,50.0,30.28,SSW,205,0.0,-999.0,45,-99.99,,,0.00,weatherlink.com 1.10,2013-05-18 16:51:00,
2013-05-18 13:06:00,71.0,51.0,30.29,SSW,205,0.0,-999.0,50,-99.99,,,0.00,weatherlink.com 1.10,2013-05-18 17:06:00,
2013-05-18 13:21:00,70.7,52.0,30.28,North,9,0.0,-999.0,52,-99.99,,,0.00,weatherlink.com 1.10,2013-05-18 17:21:00,
2013-05-18 13:36:00,70.8,51.0,30.28,North,9,0.0,-999.0,50,-99.99,,,0.00,weatherlink.com 1.10,2013-05-18 17:36:00,
2013-05-18 13:51:00,70.1,52.0,30.28,NNE,22,0.0,-999.0,52,-99.99,,,0.00,weatherlink.com 1.10,2013-05-18 17:51:00,
2013-05-18 14:06:00,69.4,52.0,30.28,NNE,22,0.0,-999.0,54,-99.99,,,0.00,weatherlink.com 1.10,2013-05-18 18:06:00,
2013-05-18 14:21:00,68.6,51.0,30.28,NNE,22,0.0,-999.0,54,-99.99,,,0.00,weatherlink.com 1.10,2013-05-18 18:21:00,
2013-05-18 14:36:00,67.3,51.0,30.28,SE,132,0.0,-999.0,57,-99.99,,,0.00,weatherlink.com 1.10,2013-05-18 18:36:00,
2013-05-18 14:52:00,66.4,51.0,30.28,ESE,115,0.0,-999.0,59,-99.99,,,0.00,weatherlink.com 1.10,2013-05-18 18:52:00,
2013-05-18 15:07:00,66.1,50.0,30.28,South,170,0.0,-999.0,56,-99.99,,,0.00,weatherlink.com 1.10,2013-05-18 19:07:00,
2013-05-18 15:22:00,65.6,49.0,30.28,ENE,59,0.0,-999.0,56,-99.99,,,0.00,weatherlink.com 1.10,2013-05-18 19:22:00,
2013-05-18 15:37:00,65.2,49.0,30.28,ENE,58,0.0,-999.0,57,-99.99,,,0.00,weatherlink.com 1.10,2013-05-18 19:37:00,
2013-05-18 15:52:00,64.7,49.0,30.29,East,101,0.0,-999.0,58,-99.99,,,0.00,weatherlink.com 1.10,2013-05-18 19:52:00,
2013-05-18 16:07:00,64.2,50.0,30.29,ESE,105,0.0,-999.0,61,-99.99,,,0.00,weatherlink.com 1.10,2013-05-18 20:07:00,
2013-05-18 16:22:00,63.4,52.0,30.30,East,98,0.0,-999.0,66,-99.99,,,0.00,weatherlink.com 1.10,2013-05-18 20:22:00,
2013-05-18 16:37:00,62.5,52.0,30.30,East,98,0.0,-999.0,68,-99.99,,,0.00,weatherlink.com 1.10,2013-05-18 20:37:00,
2013-05-18 16:52:00,61.8,52.0,30.30,ESE,112,0.0,-999.0,70,-99.99,,,0.00,weatherlink.com 1.10,2013-05-18 20:52:00,
2013-05-18 17:07:00,61.4,52.0,30.31,ESE,112,0.0,-999.0,71,-99.99,,,0.00,weatherlink.com 1.10,2013-05-18 21:07:00,
2013-05-18 17:22:00,61.0,52.0,30.31,SSE,156,0.0,-999.0,72,-99.99,,,0.00,weatherlink.com 1.10,2013-05-18 21:22:00,
2013-05-18 17:37:00,60.5,52.0,30.30,SSE,156,0.0,-999.0,73,-99.99,,,0.00,weatherlink.com 1.10,2013-05-18 21:37:00,
2013-05-18 17:52:00,60.1,52.0,30.31,SE,138,0.0,-999.0,74,-99.99,,,0.00,weatherlink.com 1.10,2013-05-18 21:52:00,
2013-05-18 18:07:00,60.1,53.0,30.30,SE,138,0.0,-999.0,76,-99.99,,,0.00,weatherlink.com 1.10,2013-05-18 22:07:00,
2013-05-18 18:23:00,60.0,53.0,30.31,SE,138,0.0,-999.0,78,-99.99,,,0.00,weatherlink.com 1.10,2013-05-18 22:23:00,
2013-05-18 18:38:00,59.8,54.0,30.31,North,5,0.0,-999.0,80,-99.99,,,0.00,weatherlink.com 1.10,2013-05-18 22:38:00,
2013-05-18 18:53:00,59.7,54.0,30.31,North,5,0.0,-999.0,80,-99.99,,,0.00,weatherlink.com 1.10,2013-05-18 22:53:00,
2013-05-18 19:08:00,59.5,53.0,30.31,North,5,0.0,-999.0,79,-99.99,,,0.00,weatherlink.com 1.10,2013-05-18 23:08:00,
2013-05-18 19:23:00,59.2,52.0,30.31,North,5,0.0,-999.0,78,-99.99,,,0.00,weatherlink.com 1.10,2013-05-18 23:23:00,
2013-05-18 19:38:00,59.0,52.0,30.31,North,5,0.0,-999.0,78,-99.99,,,0.00,weatherlink.com 1.10,2013-05-18 23:38:00,
2013-05-18 19:53:00,58.7,52.0,30.31,North,5,0.0,-999.0,78,-99.99,,,0.00,weatherlink.com 1.10,2013-05-18 23:53:00,
2013-05-18 20:08:00,58.3,51.0,30.31,North,5,0.0,-999.0,78,-99.99,,,0.00,weatherlink.com 1.10,2013-05-19 00:08:00,
2013-05-18 20:23:00,57.9,51.0,30.31,North,5,0.0,-999.0,78,-99.99,,,0.00,weatherlink.com 1.10,2013-05-19 00:23:00,
2013-05-18 20:38:00,57.7,51.0,30.31,North,5,0.0,-999.0,79,-99.99,,,0.00,weatherlink.com 1.10,2013-05-19 00:38:00,
2013-05-18 20:53:00,57.4,51.0,30.30,North,5,0.0,-999.0,80,-99.99,,,0.00,weatherlink.com 1.10,2013-05-19 00:53:00,
2013-05-18 21:08:00,56.9,52.0,30.31,North,5,0.0,-999.0,82,-99.99,,,0.00,weatherlink.com 1.10,2013-05-19 01:08:00,
2013-05-18 21:23:00,56.8,52.0,30.32,North,5,0.0,-999.0,83,-99.99,,,0.00,weatherlink.com 1.10,2013-05-19 01:23:00,
2013-05-18 21:39:00,56.7,52.0,30.32,North,5,0.0,-999.0,84,-99.99,,,0.00,weatherlink.com 1.10,2013-05-19 01:39:00,
2013-05-18 21:54:00,56.7,52.0,30.32,North,5,0.0,-999.0,85,-99.99,,,0.00,weatherlink.com 1.10,2013-05-19 01:54:00,
2013-05-18 22:09:00,56.7,52.0,30.32,North,5,0.0,-999.0,85,-99.99,,,0.00,weatherlink.com 1.10,2013-05-19 02:09:00,